�������l�o���
Date,Time,MP-1(��Sv/h),MP-2(��Sv/h),MP-3(��Sv/h),MP-4(��Sv/h),MP-5(��Sv/h),MP-6(��Sv/h),MP-7(��Sv/h),MP-8(��Sv/h),����,����(m/s),���J
2023/12/06,00:00,0.524,0.789,0.494,1.005,0.713,0.320,0.567,0.531,�k�k��,8.4,�L
2023/12/06,00:10,0.524,0.790,0.492,1.004,0.710,0.319,0.568,0.531,�k��,7.7,�L
2023/12/06,00:20,0.522,0.790,0.491,1.002,0.711,0.319,0.568,0.528,�k�k��,7.3,�L
2023/12/06,00:30,0.521,0.788,0.492,0.999,0.710,0.319,0.566,0.530,�k�k��,6.6,�L
2023/12/06,00:40,0.521,0.785,0.491,0.996,0.707,0.320,0.567,0.529,�k�k��,7.5,�L
2023/12/06,00:50,0.521,0.783,0.491,0.996,0.707,0.317,0.568,0.530,�k�k��,7.8,�L
2023/12/06,01:00,0.519,0.784,0.489,0.994,0.706,0.317,0.568,0.530,�k�k��,7.9,�L
2023/12/06,01:10,0.518,0.782,0.489,0.994,0.704,0.318,0.566,0.530,�k�k��,8.0,�L
2023/12/06,01:20,0.520,0.781,0.490,0.994,0.703,0.318,0.565,0.528,�k��,7.7,�L
2023/12/06,01:30,0.515,0.779,0.488,0.992,0.701,0.318,0.566,0.527,�k��,7.5,�L
2023/12/06,01:40,0.515,0.776,0.486,0.987,0.698,0.316,0.564,0.527,�k��,7.2,�L
2023/12/06,01:50,0.514,0.775,0.487,0.984,0.697,0.316,0.564,0.527,�k��,6.9,�L
2023/12/06,02:00,0.514,0.772,0.485,0.982,0.697,0.316,0.564,0.527,�k�k��,6.5,�L
2023/12/06,02:10,0.514,0.776,0.485,0.982,0.695,0.315,0.565,0.526,�k�k��,6.3,�L
2023/12/06,02:20,0.515,0.775,0.485,0.981,0.696,0.315,0.565,0.528,�k�k��,6.9,�L
2023/12/06,02:30,0.514,0.774,0.487,0.979,0.696,0.314,0.565,0.526,�k��,7.5,�L
2023/12/06,02:40,0.513,0.773,0.485,0.977,0.696,0.316,0.565,0.527,�k��,7.6,�L
2023/12/06,02:50,0.513,0.771,0.487,0.978,0.697,0.316,0.565,0.526,�k��,7.6,�L
2023/12/06,03:00,0.512,0.771,0.485,0.978,0.696,0.316,0.566,0.527,�k�k��,5.9,�L
2023/12/06,03:10,0.512,0.771,0.485,0.978,0.697,0.316,0.566,0.526,�k�k��,5.7,�L
2023/12/06,03:20,0.513,0.773,0.484,0.977,0.695,0.314,0.564,0.526,�k�k��,6.0,��
2023/12/06,03:30,0.513,0.775,0.484,0.978,0.696,0.315,0.565,0.527,�k,6.5,��
2023/12/06,03:40,0.513,0.772,0.483,0.975,0.697,0.314,0.564,0.526,�k�k��,7.4,�L
2023/12/06,03:50,0.512,0.773,0.485,0.975,0.696,0.314,0.565,0.526,�k�k��,6.9,�L
2023/12/06,04:00,0.512,0.774,0.483,0.977,0.698,0.315,0.563,0.525,�k�k��,6.3,�L
2023/12/06,04:10,0.513,0.773,0.485,0.975,0.696,0.314,0.564,0.526,�k��,7.4,�L
2023/12/06,04:20,0.514,0.774,0.482,0.975,0.696,0.315,0.565,0.527,�k��,7.0,�L
2023/12/06,04:30,0.514,0.773,0.484,0.974,0.697,0.314,0.563,0.526,�k��,6.1,�L
2023/12/06,04:40,0.513,0.772,0.484,0.977,0.697,0.315,0.562,0.527,�k��,5.1,�L
2023/12/06,04:50,0.512,0.772,0.484,0.975,0.696,0.316,0.563,0.526,���k��,6.6,�L
2023/12/06,05:00,0.514,0.773,0.483,0.976,0.696,0.316,0.563,0.525,�k��,6.2,�L
2023/12/06,05:10,0.513,0.773,0.483,0.973,0.696,0.314,0.563,0.527,�k��,7.1,�L
2023/12/06,05:20,0.512,0.772,0.485,0.976,0.695,0.315,0.563,0.525,�k��,7.8,�L
2023/12/06,05:30,0.512,0.771,0.484,0.976,0.695,0.315,0.563,0.525,�k��,4.7,�L
2023/12/06,05:40,0.511,0.772,0.483,0.975,0.692,0.314,0.564,0.527,�k�k��,4.5,�L
2023/12/06,05:50,0.510,0.770,0.484,0.973,0.693,0.313,0.562,0.525,�k,4.4,�L
2023/12/06,06:00,0.511,0.769,0.483,0.974,0.693,0.315,0.563,0.525,�k,4.9,�L
2023/12/06,06:10,0.511,0.769,0.483,0.973,0.692,0.314,0.562,0.524,�k,4.1,�L
2023/12/06,06:20,0.511,0.770,0.481,0.973,0.693,0.314,0.563,0.524,�k�k��,4.5,�L
2023/12/06,06:30,0.509,0.769,0.483,0.974,0.691,0.313,0.561,0.526,�k,4.6,�L
2023/12/06,06:40,0.508,0.767,0.482,0.972,0.692,0.314,0.561,0.523,�k,3.9,�L
2023/12/06,06:50,0.508,0.769,0.482,0.970,0.692,0.313,0.561,0.524,�k�k��,4.4,�L
2023/12/06,07:00,0.510,0.768,0.481,0.970,0.693,0.313,0.559,0.525,�k��,4.7,�L
2023/12/06,07:10,0.507,0.767,0.482,0.970,0.691,0.314,0.560,0.524,�k��,4.0,�L
2023/12/06,07:20,0.510,0.767,0.481,0.968,0.690,0.313,0.560,0.523,�k��,4.1,�L
2023/12/06,07:30,0.506,0.765,0.479,0.968,0.689,0.313,0.560,0.524,�k��,4.9,�L
2023/12/06,07:40,0.508,0.766,0.480,0.965,0.688,0.312,0.561,0.523,�k��,5.0,�L
2023/12/06,07:50,0.507,0.765,0.480,0.965,0.686,0.312,0.559,0.522,�k��,4.6,�L
2023/12/06,08:00,0.504,0.760,0.480,0.964,0.685,0.312,0.557,0.523,�k��,5.1,�L
2023/12/06,08:10,0.501,0.760,0.478,0.960,0.682,0.311,0.557,0.521,�k��,4.6,�L
2023/12/06,08:20,0.499,0.757,0.479,0.956,0.681,0.310,0.556,0.521,�k��,5.2,�L
2023/12/06,08:30,0.499,0.757,0.477,0.956,0.680,0.310,0.556,0.521,�k��,6.2,�L
2023/12/06,08:40,0.498,0.755,0.477,0.953,0.681,0.310,0.556,0.522,�k��,5.6,�L
2023/12/06,08:50,0.503,0.757,0.478,0.954,0.682,0.309,0.556,0.521,�k�k��,4.7,�L
2023/12/06,09:00,0.503,0.759,0.478,0.957,0.685,0.310,0.557,0.520,�k�k��,4.7,�L
2023/12/06,09:10,0.504,0.757,0.481,0.954,0.685,0.310,0.556,0.520,�k�k��,4.2,�L
2023/12/06,09:20,0.504,0.759,0.478,0.956,0.683,0.312,0.555,0.521,�k�k��,4.4,�L
2023/12/06,09:30,0.503,0.759,0.479,0.954,0.683,0.312,0.558,0.519,�k�k��,3.8,�L
2023/12/06,09:40,0.504,0.760,0.477,0.955,0.685,0.311,0.557,0.523,�k�k��,4.1,�L
2023/12/06,09:50,0.503,0.760,0.477,0.955,0.684,0.310,0.556,0.522,�k�k��,3.5,��
2023/12/06,10:00,0.505,0.759,0.477,0.958,0.684,0.310,0.556,0.523,�k�k��,3.3,�L
2023/12/06,10:10,0.504,0.759,0.479,0.954,0.684,0.312,0.557,0.521,�k��,4.1,�L
2023/12/06,10:20,0.505,0.760,0.477,0.956,0.685,0.311,0.556,0.522,�k��,4.6,�L
2023/12/06,10:30,0.504,0.760,0.479,0.955,0.685,0.311,0.555,0.522,�k��,4.4,�L
2023/12/06,10:40,0.505,0.759,0.479,0.953,0.684,0.312,0.557,0.520,�k��,4.6,�L
2023/12/06,10:50,0.505,0.760,0.478,0.955,0.685,0.312,0.555,0.521,�k��,3.8,�L
2023/12/06,11:00,0.505,0.761,0.480,0.956,0.684,0.311,0.557,0.521,�k��,4.8,�L
2023/12/06,11:10,0.504,0.762,0.480,0.956,0.688,0.311,0.556,0.520,�k��,5.5,�L
2023/12/06,11:20,0.504,0.764,0.478,0.958,0.687,0.311,0.557,0.522,�k��,4.4,�L
2023/12/06,11:30,0.505,0.764,0.479,0.952,0.686,0.310,0.555,0.523,�k��,4.2,�L
2023/12/06,11:40,0.507,0.763,0.480,0.955,0.685,0.310,0.557,0.522,�k��,4.1,��
2023/12/06,11:50,0.506,0.764,0.477,0.958,0.686,0.311,0.555,0.523,�k��,3.4,��
2023/12/06,12:00,0.505,0.762,0.477,0.958,0.688,0.311,0.556,0.522,�k�k��,3.6,��
2023/12/06,12:10,0.507,0.762,0.478,0.956,0.686,0.310,0.556,0.521,�k��,4.0,��
2023/12/06,12:20,0.504,0.763,0.479,0.958,0.687,0.310,0.558,0.522,�k��,5.3,��
2023/12/06,12:30,0.506,0.762,0.478,0.958,0.684,0.310,0.557,0.522,�k��,5.4,��
2023/12/06,12:40,0.506,0.764,0.478,0.957,0.686,0.311,0.558,0.520,�k��,4.8,��
2023/12/06,12:50,0.505,0.766,0.478,0.959,0.685,0.311,0.557,0.521,�k��,4.9,��
2023/12/06,13:00,0.504,0.763,0.478,0.957,0.686,0.310,0.559,0.523,�k�k��,4.0,��
2023/12/06,13:10,0.504,0.763,0.479,0.959,0.685,0.312,0.558,0.522,�k�k��,4.5,��
2023/12/06,13:20,0.505,0.763,0.479,0.960,0.686,0.310,0.558,0.522,�k�k��,4.1,��
2023/12/06,13:30,0.507,0.761,0.481,0.959,0.686,0.311,0.558,0.522,�k�k��,3.7,��
2023/12/06,13:40,0.506,0.762,0.479,0.957,0.687,0.311,0.558,0.523,�k�k��,4.2,�L
2023/12/06,13:50,0.505,0.761,0.479,0.957,0.685,0.311,0.557,0.520,�k�k��,4.1,�L
2023/12/06,14:00,0.506,0.762,0.478,0.956,0.687,0.311,0.557,0.521,�k��,4.2,�L
2023/12/06,14:10,0.507,0.762,0.479,0.960,0.689,0.310,0.558,0.522,�k��,4.3,�L
2023/12/06,14:20,0.505,0.764,0.480,0.958,0.687,0.311,0.559,0.522,�k�k��,3.9,�L
2023/12/06,14:30,0.508,0.763,0.479,0.958,0.689,0.310,0.559,0.522,�k�k��,2.8,��
2023/12/06,14:40,0.507,0.765,0.481,0.959,0.689,0.311,0.558,0.524,�k�k��,2.9,��
2023/12/06,14:50,0.507,0.765,0.480,0.961,0.690,0.311,0.558,0.525,�k�k��,3.1,��
2023/12/06,15:00,0.506,0.765,0.477,0.959,0.692,0.312,0.559,0.524,�k�k��,3.1,��
2023/12/06,15:10,0.506,0.766,0.480,0.960,0.689,0.310,0.558,0.523,�k�k��,3.2,��
2023/12/06,15:20,0.508,0.766,0.480,0.960,0.687,0.310,0.558,0.524,�k�k��,2.9,��
2023/12/06,15:30,0.507,0.765,0.479,0.958,0.690,0.311,0.559,0.525,�k�k��,2.9,��
2023/12/06,15:40,0.508,0.766,0.479,0.960,0.690,0.310,0.559,0.524,�k,2.3,��
2023/12/06,15:50,0.507,0.765,0.480,0.960,0.689,0.311,0.559,0.524,�k,2.8,��
2023/12/06,16:00,0.507,0.769,0.478,0.961,0.690,0.311,0.559,0.525,�k,3.7,��
2023/12/06,16:10,0.507,0.767,0.480,0.960,0.690,0.310,0.561,0.524,�k,3.7,��
2023/12/06,16:20,0.507,0.764,0.481,0.959,0.686,0.312,0.559,0.523,�k,4.4,��
2023/12/06,16:30,0.506,0.766,0.479,0.958,0.690,0.310,0.560,0.523,�k,4.7,��
2023/12/06,16:40,0.506,0.768,0.479,0.958,0.689,0.312,0.559,0.524,�k,3.8,��
2023/12/06,16:50,0.506,0.767,0.479,0.959,0.688,0.312,0.561,0.523,�k,5.5,��
2023/12/06,17:00,0.506,0.764,0.478,0.958,0.689,0.311,0.561,0.523,�k�k��,5.0,��
2023/12/06,17:10,0.506,0.767,0.479,0.960,0.687,0.313,0.560,0.522,�k�k��,4.9,��
2023/12/06,17:20,0.507,0.769,0.478,0.959,0.690,0.309,0.561,0.522,�k��,4.2,��
2023/12/06,17:30,0.505,0.768,0.482,0.957,0.690,0.309,0.558,0.523,�k��,4.4,��
2023/12/06,17:40,0.507,0.766,0.478,0.959,0.690,0.310,0.560,0.522,�k��,3.7,��
2023/12/06,17:50,0.507,0.768,0.479,0.958,0.691,0.311,0.559,0.523,�k��,4.0,��
2023/12/06,18:00,0.507,0.766,0.479,0.959,0.691,0.312,0.559,0.522,�k��,4.0,��
2023/12/06,18:10,0.505,0.768,0.479,0.960,0.689,0.312,0.560,0.524,�k��,3.5,��
2023/12/06,18:20,0.506,0.766,0.479,0.961,0.689,0.312,0.560,0.523,�k��,3.4,��
2023/12/06,18:30,0.507,0.766,0.479,0.960,0.690,0.310,0.559,0.521,�k�k��,3.2,��
2023/12/06,18:40,0.505,0.767,0.479,0.961,0.689,0.311,0.560,0.522,�k�k��,3.3,��
2023/12/06,18:50,0.506,0.764,0.481,0.961,0.688,0.310,0.559,0.522,�k�k��,3.4,��
2023/12/06,19:00,0.507,0.767,0.480,0.960,0.691,0.311,0.561,0.523,�k�k��,3.9,��
2023/12/06,19:10,0.506,0.767,0.479,0.960,0.693,0.311,0.559,0.522,�k�k��,4.0,��
2023/12/06,19:20,0.507,0.766,0.481,0.961,0.690,0.311,0.559,0.523,�k�k��,3.7,��
2023/12/06,19:30,0.506,0.766,0.479,0.961,0.691,0.311,0.559,0.523,�k��,4.0,��
2023/12/06,19:40,0.506,0.766,0.480,0.963,0.690,0.310,0.559,0.523,�k��,4.2,��
2023/12/06,19:50,0.507,0.768,0.479,0.960,0.690,0.312,0.560,0.524,�k��,3.6,��
2023/12/06,20:00,0.507,0.764,0.480,0.962,0.690,0.311,0.560,0.522,�k��,3.6,��
2023/12/06,20:10,0.505,0.765,0.479,0.961,0.690,0.312,0.559,0.522,�k,4.9,��
2023/12/06,20:20,0.507,0.768,0.480,0.961,0.690,0.312,0.559,0.524,�k�k��,3.9,��
2023/12/06,20:30,0.508,0.767,0.479,0.960,0.689,0.310,0.559,0.523,�k��,3.8,��
2023/12/06,20:40,0.507,0.767,0.480,0.961,0.690,0.311,0.559,0.524,�k�k��,3.6,��
2023/12/06,20:50,0.507,0.766,0.479,0.961,0.690,0.312,0.559,0.524,�k��,3.8,��
2023/12/06,21:00,0.505,0.767,0.480,0.961,0.691,0.311,0.559,0.523,�k��,3.1,��
2023/12/06,21:10,0.506,0.767,0.479,0.963,0.689,0.311,0.558,0.523,�k��,2.6,��
2023/12/06,21:20,0.507,0.768,0.480,0.964,0.689,0.311,0.559,0.523,���k��,2.2,��
2023/12/06,21:30,0.507,0.766,0.480,0.961,0.693,0.311,0.560,0.523,���k��,2.6,��
2023/12/06,21:40,0.507,0.767,0.480,0.964,0.690,0.310,0.560,0.523,��,2.2,��
2023/12/06,21:50,0.506,0.767,0.479,0.964,0.693,0.312,0.560,0.523,���k��,2.3,��
2023/12/06,22:00,0.507,0.767,0.480,0.962,0.689,0.310,0.560,0.523,��,2.0,��
2023/12/06,22:10,0.507,0.766,0.479,0.963,0.689,0.312,0.559,0.522,���쐼,2.5,��
2023/12/06,22:20,0.506,0.767,0.481,0.963,0.691,0.311,0.558,0.524,���쐼,2.0,��
2023/12/06,22:30,0.507,0.768,0.479,0.962,0.692,0.311,0.558,0.524,�쐼,1.1,��
2023/12/06,22:40,0.508,0.767,0.481,0.963,0.691,0.311,0.559,0.523,�쐼,2.6,��
2023/12/06,22:50,0.507,0.768,0.480,0.962,0.691,0.312,0.559,0.523,�쐼,3.0,��
2023/12/06,23:00,0.506,0.767,0.478,0.961,0.690,0.311,0.560,0.524,�쐼,4.0,��
2023/12/06,23:10,0.507,0.770,0.479,0.964,0.690,0.312,0.560,0.524,�쐼,4.1,��
2023/12/06,23:20,0.506,0.768,0.480,0.963,0.690,0.312,0.560,0.523,��쐼,3.1,��
2023/12/06,23:30,0.509,0.767,0.479,0.963,0.691,0.312,0.560,0.523,��쐼,3.2,��
2023/12/06,23:40,0.506,0.769,0.478,0.961,0.691,0.312,0.560,0.525,��쐼,2.0,��
2023/12/06,23:50,0.507,0.766,0.479,0.961,0.691,0.311,0.559,0.523,��,3.6,��
